#timestamp,LO_Frequency,Hit,StdDev 
1589680815.4,286047000.3,N
1589680835.2,286047000.8,N
1589680855.0,286046999.2,N
1589680855.9,286046999.2,N
1589680875.8,286046998.3,N
1589680895.6,286047000.0,N
1589680915.4,286047002.4,N
1589680935.3,286047002.5,N
1589680955.1,286047005.9,N
1589680975.9,286047003.0,N
1589680995.7,286047005.7,N
1589681015.5,286047007.1,N
1589681035.4,286047010.8,Y
1589681055.2,286047005.2,P
1589681075.0,286047001.3,N
1589681075.9,286047001.3,N
1589681095.8,286047002.1,N
1589681115.6,286046999.7,N
1589681135.5,286047004.4,N
1589681155.3,286047003.9,N
1589681175.1,286047001.3,N
1589681195.9,286047003.2,N
1589681215.7,286047006.4,Y
1589681235.5,286047003.6,P
1589681255.4,286047007.6,P
1589681275.2,286047008.7,P
1589681295.1,286047006.1,N
1589681296.0,286047006.1,N
1589681315.8,286047009.4,Y
1589681335.6,286047008.5,P
1589681355.5,286047006.3,P
1589681375.3,286047008.9,P
1589681395.1,286047010.2,Y
1589681415.9,286047003.2,P
1589681435.7,286047005.6,N
1589681455.6,286047006.4,P
1589681475.4,286047008.7,Y
1589681495.2,286047001.8,P
1589681515.1,286047001.8,N
1589681516.0,286047001.8,N
1589681535.8,286047001.5,N
1589681555.7,286047002.6,N
1589681575.5,286047000.3,N
1589681595.3,286047000.1,N
1589681615.2,286046996.9,N
1589681635.9,286046999.2,N
1589681655.7,286047000.6,N
1589681675.6,286047001.1,N
1589681695.4,286046996.8,N
1589681715.2,286046998.8,N
1589681735.1,286046995.0,N
1589681736.0,286046995.0,N
1589681755.8,286046999.4,N
1589681775.7,286046994.9,N
1589681795.5,286046998.6,N
1589681815.3,286047002.2,N
1589681835.2,286047005.7,N
1589681855.0,286047006.9,N
1589681855.9,286047006.9,N
1589681875.7,286047009.7,N
1589681895.6,286047008.5,N
1589681915.4,286047008.3,N
1589681935.3,286047012.2,N
1589681955.1,286047009.9,N
1589681956.0,286047009.9,N
1589681975.8,286047009.6,N
1589681995.7,286047012.1,N
1589682015.5,286047012.8,N
1589682035.3,286047016.1,N
1589682055.2,286047018.6,Y
1589682075.0,286047018.3,P
1589682075.9,286047018.3,N
1589682095.8,286047018.0,N
1589682115.6,286047021.1,Y
1589682135.4,286047007.3,P
1589682155.3,286047010.5,N
1589682175.1,286047013.6,P
1589682195.9,286047013.2,Y
1589682215.7,286047005.7,P
1589682235.5,286047007.0,N
1589682255.4,286047008.4,P
1589682275.2,286047009.4,Y
1589682295.0,286047005.4,P
1589682295.9,286047005.4,P
1589682315.8,286047006.1,P
1589682335.6,286047008.2,Y
1589682355.5,286047006.0,P
1589682375.3,286047004.8,P
1589682395.1,286047008.8,P
1589682415.9,286047009.3,Y
1589682435.7,286047007.3,P
1589682455.6,286047011.9,P
1589682475.4,286047008.7,P
1589682495.2,286047007.4,Y
1589682515.1,286046998.3,P
1589682516.0,286046998.3,N
1589682535.8,286046995.0,N
1589682555.6,286046997.4,N
1589682575.5,286046995.0,N
1589682595.3,286046993.7,N
1589682615.2,286046993.0,N
1589682635.9,286046992.9,N
1589682655.7,286046990.1,N
1589682675.6,286046991.2,N
1589682695.4,286046992.8,N
1589682715.2,286046992.6,N
1589682735.1,286046994.3,N
1589682736.0,286046994.3,N
1589682755.8,286046993.5,N
1589682775.7,286046997.4,N
1589682795.5,286046998.7,N
1589682815.3,286047001.9,N
1589682835.2,286047006.6,N
1589682855.0,286047006.1,N
1589682855.9,286047006.1,N
1589682875.8,286047006.9,N
1589682895.6,286047008.4,N
1589682915.4,286047010.6,N
1589682935.3,286047009.1,N
1589682955.1,286047007.4,N
1589683005.9,286047003.2,E
1589683015.8,286047001.7,N
1589683035.6,286047000.9,P
1589683055.5,286046998.9,N
1589683075.3,286046999.9,N
1589683095.2,286046998.4,N
1589683115.9,286046999.4,N
1589683135.7,286047001.1,N
1589683155.6,286046997.4,N
1589683175.4,286046995.1,Y
1589683195.2,286046998.9,P
1589683215.1,286046998.3,P
1589683216.0,286046998.3,N
1589683235.8,286046999.2,N
1589683255.7,286046996.6,Y
1589683275.5,286047000.7,P
1589683295.3,286047001.9,N
1589683315.2,286047001.3,N
1589683335.0,286047005.0,Y
1589683335.9,286047005.0,P
1589683355.8,286047010.4,P
1589683375.6,286047008.3,N
1589683395.4,286047007.9,N
1589683415.3,286047010.2,Y
1589683435.1,286047005.2,P
1589683455.9,286047005.5,P
1589683475.7,286047007.6,P
1589683495.5,286047003.5,Y
1589683515.4,286046995.2,P
1589683535.2,286046995.2,N
1589683555.1,286046993.8,N
1589683556.0,286046993.8,N
1589683575.8,286046995.0,N
1589683595.6,286046995.9,N
1589683615.5,286046996.0,N
1589683635.3,286046990.3,N
1589683655.1,286046992.8,N
1589683675.9,286046990.5,N
1589683695.7,286046989.8,N
1589683715.6,286046987.6,Y
1589683735.4,286046994.8,P
1589683755.2,286046993.5,P
1589683775.1,286046995.9,P
1589683776.0,286046995.9,Y
1589683795.8,286047000.1,P
1589683815.7,286047001.0,N
1589683835.5,286046998.8,N
1589683855.3,286046998.3,N
1589683875.2,286046999.7,N
1589683895.0,286047003.4,N
1589683895.9,286047003.4,N
1589683915.7,286047006.7,N
1589683935.6,286047008.5,N
1589683955.4,286047008.5,N
1589683975.3,286047007.8,N
1589683995.1,286047008.4,N
1589683996.0,286047008.4,N
1589684015.8,286047006.2,N
1589684035.7,286047008.5,N
1589684055.5,286047006.6,N
1589684075.4,286047006.5,N
1589684095.2,286047009.0,N
1589684115.0,286047006.3,N
1589684115.9,286047006.3,N
1589684135.8,286047009.1,N
1589684155.6,286047007.9,N
1589684175.4,286047007.9,N
1589684195.3,286047012.3,Y
1589684215.1,286047003.0,P
1589684235.9,286047003.5,P
1589684255.7,286047005.6,P
1589684275.5,286047003.4,Y
1589684295.4,286047000.6,P
1589684315.2,286046999.4,N
1589684335.0,286046999.5,N
1589684335.9,286046999.5,N
1589684385.8,286046997.3,E
1589684395.7,286046998.8,N
